Flag for Austria Weather past 2 weeks in St. Pölten, Lower Austria, Austria

Now
46 °F

Broken clouds.


Feels Like: 39 °F
Forecast: 26 / 48 °F
Wind: 18 mph from West

Location: Tulln Airport

Current Time: Feb 28, 2015 at 2:34:36 PM

Latest Report: Feb 28, 2015 at 1:50 PM


Visibility: 9 mi

Pressure: 30.12 "Hg

Humidity: 71%

Dew point: 37 °F

Location of St. PöltenLocation

Historic Weather in St. Pölten — Graph

°F

St. Pölten temperature yesterday

Maximum temperature yesterday: 52 °F (at 1:50 PM)
Minimum temperature yesterday: 32 °F (at 4:50 AM)
Average temperature yesterday: 42 °F

Past Weeks' High & Low Weather Summary

 TemperatureHumidityPressure
High52 °F (Feb 20, 1:50 PM)100% (Feb 20, 7:50 AM)30.74 "Hg (Feb 20, 7:50 AM)
Low23 °F (Feb 20, 4:50 AM)46% (Feb 16, 12:50 PM)29.56 "Hg (Feb 21, 7:50 PM)
Average39 °F78%30.06 "Hg
* Reported Feb 13 12:50 PM — Feb 28 12:50 PM, St. Pölten, Weather by CustomWeather, © 2015

Note: Actual official high and low records may vary slightly from our data, if they occured in-between our weather recording intervals... More about our weather records

Advertising

St. Pölten weather history for previous 24 hours

 ConditionsComfort  
Time TempWeatherWind HumidityBarometerVisibility
12:50 PM
Sat, Feb 28
45 °FBroken clouds.16 mph71%30.12 "Hg9 mi
11:50 AM45 °FBroken clouds.17 mph71%30.12 "Hg9 mi
10:50 AM45 °FBroken clouds.17 mph76%30.12 "Hg7 mi
9:50 AM43 °FBroken clouds.17 mph76%30.12 "Hg7 mi
8:50 AM43 °FPartly sunny.15 mph76%30.12 "Hg7 mi
7:50 AM39 °FPartly sunny.15 mph87%30.09 "Hg7 mi
6:50 AM39 °FPartly sunny.13 mph81%30.07 "Hg7 mi
5:50 AM37 °FPassing clouds.12 mph87%30.07 "Hg7 mi
4:50 AM37 °FPartly cloudy.9 mph87%30.07 "Hg6 mi
9:50 PM
Fri, Feb 27
37 °FPassing clouds.7 mph93%30.01 "Hg7 mi
8:50 PM39 °FPassing clouds.5 mph87%29.98 "Hg9 mi
7:50 PM41 °FPassing clouds.8 mph81%29.95 "Hg9 mi
6:50 PM43 °FPassing clouds.10 mph76%29.92 "Hg9 mi
5:50 PM45 °FPassing clouds.9 mph71%29.89 "Hg9 mi
4:50 PM46 °FPassing clouds.6 mph71%29.86 "Hg9 mi
3:50 PM50 °FPassing clouds.14 mph67%29.86 "Hg11 mi
2:50 PM52 °FPassing clouds.14 mph58%29.86 "Hg11 mi
Weather by CustomWeather, © 2015

See weather overviewHow to use our weather pages